[[{"header":{"parameterUnit":"m.s-1","parameterCategory":1,"la1":30.2992,"la2":30.254,"lo1":-89.0895,"lo2":-89.0443,"dy":0.0025,"dx":0.0025,"nx":19,"ny":19,"refTime":"2026-05-18T03:00:00:Z","depth":0,"parameterNumber":2,"parameterNumberName":"U-component_of_WINDS"},"data":[0,0,0,-5.3052,-5.3054,-5.3154,-5.3154,-5.3299,-5.33,0,0,0,0,0,0,0,0,0,0,0,-5.3034,-5.3036,-5.3052,-5.3054,-5.3154,-5.3154,-5.3299,-5.33,0,0,0,0,0,0,0,0,0,0,0,-5.3034,-5.3035,-5.3037,-5.3055,-5.3154,-5.3154,-5.3298,-5.3217,0,0,0,0,0,0,0,0,0,0,-5.3117,-5.3113,-5.3035,-5.3037,-5.3056,-5.3153,-5.3154,-5.3212,-5.3222,-5.3262,0,-5.3302,0,-5.3304,-5.3311,-5.3312,0,0,0,-5.3045,-5.3105,-5.3121,-5.3037,-5.3057,-5.3153,-5.3106,-5.3217,-5.3228,-5.3275,-5.3304,-5.3308,-5.3306,-5.3312,-5.3313,-5.3577,-5.3579,0,0,-5.304,-5.3058,-5.3114,-5.3129,-5.3116,-5.3103,-5.3109,-5.3224,-5.3256,-5.3304,-5.3312,-5.3308,-5.3314,-5.3315,-5.3576,-5.3578,0,0,0,-5.303,-5.3055,-5.3068,-5.3123,-5.314,-5.3106,-5.3113,-5.3251,-5.3254,-5.3313,-5.331,-5.3314,-5.3316,-5.3574,-5.3576,-5.3675,0,0,0,-5.3026,-5.3049,-5.3066,-5.3078,-5.3138,-5.3197,-5.3139,-5.3246,-5.3258,-5.3309,-5.3315,-5.3318,-5.3572,-5.3575,-5.3668,-5.3717,0,0,0,-5.3024,-5.3049,-5.3067,-5.3079,-5.3122,-5.3195,-5.3204,-5.3248,-5.3257,-5.3312,-5.3319,-5.3571,-5.3574,-5.3662,-5.3707,-5.379,0,0,0,-5.3026,-5.3154,-5.3069,-5.3211,-5.3122,-5.3256,-5.3203,-5.3302,-5.3361,-5.3315,-5.3572,-5.3576,-5.366,-5.3701,-5.3784,-5.3861,-5.3896,0,0,-5.3198,-5.3175,-5.3258,-5.3185,-5.3339,-5.3239,-5.3408,-5.3444,-5.3433,-5.3529,-5.3536,-5.367,-5.3707,-5.3789,-5.409,-5.4117,0,0,0,-5.3318,-5.3377,-5.3414,-5.3472,-5.3504,-5.3534,-5.3543,-5.3557,-5.3638,-5.3487,-5.3724,-5.3745,-5.3792,-5.3828,-5.3852,-5.389,-5.3594,-5.3594,-5.3593,-5.3586,-5.3565,-5.3699,-5.369,-5.3747,-5.3755,-5.3798,-5.3818,-5.378,-5.3837,-5.3864,-5.4049,-5.4092,-5.411,-5.415,-5.3906,-5.3906,-5.3907,-5.3907,-5.3833,-5.3912,-5.386,-5.3971,-5.3948,-5.404,-5.4054,-5.4024,-5.4106,-5.4027,-5.4067,-5.398,-5.4141,-5.4175,-5.3914,-5.3913,-5.3912,-5.3911,-5.3911,-5.4003,-5.4037,-5.4053,-5.4134,-5.4198,-5.4185,-5.4267,-5.4243,-5.4222,-5.4262,-5.4287,-5.4286,-5.4278,-5.4277,-5.4277,-5.4278,-5.4279,-5.4279,-5.4279,-5.4172,-5.4187,-5.4258,-5.4304,-5.4337,-5.4379,-5.439,-5.4422,-5.4451,-5.4427,-5.4428,-5.4383,-5.4162,-5.4105,-5.4289,-5.4288,-5.4286,-5.4285,-5.4285,-5.4425,-5.4365,-5.4475,-5.4509,-5.456,-5.4625,-5.4595,-5.4663,-5.4687,-5.4727,-5.4675,-5.4516,-5.4491,-5.4472,-5.4424,-5.468,-5.468,-5.468,-5.4681,-5.4566,-5.4553,-5.466,-5.4715,-5.4767,-5.4752,-5.4876,-5.4886,-5.4887,-5.49,-5.486,-5.4797,-5.4778,-5.4764,-5.4738,-5.4693,-5.5012,-5.5013,-5.5013,-5.472,-5.471,-5.482,-5.4821,-5.4859,-5.4892,-5.5007,-5.5072,-5.5061,-5.5026,-5.4909,-5.4895,-5.4792,-5.476,-5.4718,-5.4679,-5.4596,0,0]},{"header":{"parameterUnit":"m.s-1","parameterCategory":1,"la1":30.2992,"la2":30.254,"lo1":-89.0895,"lo2":-89.0443,"dy":0.0025,"dx":0.0025,"nx":19,"ny":19,"refTime":"2026-05-18T03:00:00:Z","depth":0,"parameterNumber":3,"parameterNumberName":"V-component_of_WINDS"},"data":[0,0,0,3.433,3.4332,3.4422,3.4423,3.453,3.4531,0,0,0,0,0,0,0,0,0,0,0,3.43,3.4301,3.433,3.4332,3.4422,3.4423,3.453,3.4531,0,0,0,0,0,0,0,0,0,0,0,3.43,3.43,3.4301,3.4333,3.4422,3.4423,3.453,3.4464,0,0,0,0,0,0,0,0,0,0,3.4378,3.4347,3.43,3.4301,3.4333,3.4422,3.4423,3.4461,3.4468,3.4486,0,3.4502,0,3.4519,3.4538,3.4538,0,0,0,3.4334,3.4341,3.4369,3.4301,3.4334,3.4422,3.4382,3.4465,3.4473,3.4496,3.4504,3.4508,3.452,3.4538,3.4539,3.464,3.4641,0,0,3.4329,3.4314,3.4363,3.4374,3.4361,3.4379,3.4385,3.447,3.4478,3.4505,3.4511,3.4522,3.4539,3.454,3.464,3.4641,0,0,0,3.4314,3.431,3.4336,3.4369,3.4386,3.4382,3.4389,3.4474,3.4484,3.4512,3.4523,3.454,3.4541,3.464,3.464,3.4645,0,0,0,3.4311,3.4301,3.4334,3.4325,3.4384,3.4431,3.439,3.4478,3.4488,3.4523,3.454,3.4542,3.4639,3.464,3.4644,3.465,0,0,0,3.4295,3.4299,3.4311,3.4324,3.4363,3.443,3.4445,3.448,3.4495,3.4538,3.4542,3.4639,3.464,3.4643,3.4649,3.4673,0,0,0,3.4274,3.4312,3.4311,3.4359,3.4362,3.4433,3.4445,3.4498,3.4536,3.454,3.4639,3.464,3.4643,3.4648,3.4672,3.4692,3.4699,0,0,3.4314,3.4317,3.4346,3.4348,3.4416,3.4421,3.4489,3.4537,3.4554,3.461,3.4613,3.4645,3.4648,3.4673,3.474,3.4745,0,0,0,3.4354,3.4375,3.4396,3.4433,3.4472,3.4506,3.4546,3.4564,3.4613,3.458,3.466,3.4663,3.4678,3.4688,3.4693,3.4707,3.4644,3.4644,3.4644,3.4387,3.441,3.4461,3.4494,3.4529,3.4571,3.4602,3.4633,3.4643,3.4662,3.4678,3.4717,3.4728,3.4732,3.4746,3.469,3.469,3.469,3.469,3.4449,3.4483,3.4498,3.4553,3.4576,3.4622,3.4664,3.467,3.4715,3.4705,3.472,3.4707,3.4737,3.4751,3.4691,3.4691,3.4691,3.4691,3.4691,3.4474,3.4495,3.4518,3.4575,3.4615,3.4647,3.4691,3.471,3.4727,3.4742,3.4762,3.4762,3.4765,3.475,3.475,3.4751,3.4751,3.4751,3.4751,3.4492,3.4518,3.4553,3.46,3.4627,3.4665,3.4709,3.4735,3.4769,3.4779,3.478,3.4788,3.4735,3.4722,3.4753,3.4753,3.4752,3.4752,3.4752,3.4547,3.4538,3.4593,3.4621,3.4678,3.4718,3.4742,3.4795,3.4819,3.4841,3.4847,3.4805,3.4808,3.4805,3.4794,3.4842,3.4842,3.4842,3.4842,3.4569,3.4573,3.4635,3.4678,3.4722,3.475,3.4811,3.4846,3.4879,3.4896,3.4892,3.4879,3.4875,3.4881,3.4876,3.4866,3.4931,3.4931,3.4931,3.4605,3.4615,3.4664,3.4699,3.4746,3.4785,3.4844,3.4892,3.4928,3.4935,3.491,3.4906,3.4885,3.4877,3.4884,3.4875,3.4858,0,0]}]]